Regional Weather Roundup
Issued by NWS

Home | Current Version | Previous Version | Graphics & Text | Print | Product List | Glossary On
Versions: 1 2 3 4 5 6 7 8 9 10 11 12 13 14 15 16 17 18 19 20 21 22 23 24 25 26 27 28 29 30 31 32 33 34 35 36 37 38 39 40 41 42 43 44 45 46 47 48 49 50
084
ASUS43 KBIS 131302
RWRND

NORTH DAKOTA REGIONAL WEATHER ROUNDUP
NATIONAL WEATHER SERVICE BISMARCK ND
700 AM CST SAT FEB 13 2016

NOTE: "FAIR" INDICATES FEW OR NO CLOUDS BELOW 12,000 FEET WITH NO
SIGNIFICANT WEATHER AND/OR OBSTRUCTIONS TO VISIBILITY.


NDZ001>003-009>011-017-131400-
NORTHWEST NORTH DAKOTA

CITY           SKY/WX    TMP DP  RH WIND       PRES   REMARKS
WILLISTON      CLOUDY    15   9  76 SE10      30.08F WCI   2
MINOT          CLOUDY    10  -1  61 SE18      30.23F WCI  -8
MINOT AFB      CLOUDY     8   0  70 SE16      30.23F WCI  -9
$$

NDZ018>021-031>035-040>046-131400-
SOUTHWEST NORTH DAKOTA

CITY           SKY/WX    TMP DP  RH WIND       PRES   REMARKS
BISMARCK       CLOUDY    10  -3  55 SE16      30.30F WCI  -7
DICKINSON      LGT SNOW  11   6  81 SE17      30.06F WCI  -6
GARRISON         N/A      8   2  76 SE16      30.21F WCI -10
HETTINGER ARPT CLOUDY    12   9  87 SE15      30.11F FOG     WCI  -4
$$

NDZ004>008-012>016-024-026-027-054-131400-
NORTHEAST NORTH DAKOTA

CITY           SKY/WX    TMP DP  RH WIND       PRES   REMARKS
GRAND FORKS    CLOUDY    -7 -14  71 SE7       30.57S WCI -21
GRND FRKS AFB  CLOUDY    -8 -14  75 S8        30.54F WCI -25
DEVILS LAKE    CLOUDY    -6 -12  75 SE10      30.40F WCI -24
$$

NDZ022-023-025-028>030-036>039-047>053-131400-
SOUTHEAST NORTH DAKOTA

CITY           SKY/WX    TMP DP  RH WIND       PRES   REMARKS
FARGO          CLOUDY    -5 -11  75 SE7       30.58F WCI -19
JAMESTOWN      CLOUDY    -2  -9  72 SE9       30.42F WCI -18
$$





USA.gov is the U.S. government's official web portal to all federal, state and local government web resources and services.